Time,TemperatureF,DewpointF,PressureIn,WindDirection,WindDirectionDegrees,WindSpeedMPH,WindSpeedGustMPH,Humidity,HourlyPrecipIn,Conditions,Clouds,dailyrainin,SoftwareType,DateUTC
2013-01-24 00:23:00,3.0,-3.0,29.93,South,180,2.0,3.0,80,0.00,,,0.00,TxWx,2013-01-24 05:23:00,
2013-01-24 00:29:00,4.0,-2.0,29.92,South,180,4.0,4.0,80,0.00,,,0.00,TxWx,2013-01-24 05:29:00,
2013-01-24 00:35:00,4.0,-2.0,30.00,South,180,2.0,2.0,80,0.00,,,0.00,TxWx,2013-01-24 05:35:00,
2013-01-24 00:40:00,4.0,-2.0,29.79,SSW,202,1.0,2.0,79,0.00,,,0.00,TxWx,2013-01-24 05:40:00,
2013-01-24 00:45:00,4.0,-2.0,29.85,South,180,2.0,3.0,79,0.00,,,0.00,TxWx,2013-01-24 05:45:00,
2013-01-24 00:50:00,4.0,-2.0,29.85,South,180,3.0,4.0,79,0.00,,,0.00,TxWx,2013-01-24 05:50:00,
2013-01-24 00:55:00,5.0,-1.0,29.81,South,180,3.0,3.0,78,0.00,,,0.00,TxWx,2013-01-24 05:55:00,
2013-01-24 01:01:00,4.0,-2.0,29.74,WSW,247,1.0,2.0,78,0.00,,,0.00,TxWx,2013-01-24 06:01:00,
2013-01-24 01:06:00,4.0,-2.0,29.73,SW,225,1.0,1.0,78,0.00,,,0.00,TxWx,2013-01-24 06:06:00,
2013-01-24 01:11:00,4.0,-2.0,29.75,South,180,2.0,2.0,78,0.00,,,0.00,TxWx,2013-01-24 06:11:00,
2013-01-24 01:17:00,4.0,-2.0,29.74,WSW,247,1.0,2.0,78,0.00,,,0.00,TxWx,2013-01-24 06:17:00,
2013-01-24 01:22:00,4.0,-2.0,29.70,WNW,292,1.0,2.0,79,0.00,,,0.00,TxWx,2013-01-24 06:22:00,
2013-01-24 01:27:00,3.0,-3.0,29.77,SSW,202,1.0,1.0,80,0.00,,,0.00,TxWx,2013-01-24 06:27:00,
2013-01-24 01:32:00,2.0,-4.0,29.76,WSW,247,3.0,3.0,80,0.00,,,0.00,TxWx,2013-01-24 06:32:00,
2013-01-24 01:37:00,3.0,-3.0,29.64,West,270,2.0,3.0,80,0.00,,,0.00,TxWx,2013-01-24 06:37:00,
2013-01-24 01:42:00,2.0,-3.0,29.76,SW,225,0.0,1.0,82,0.00,,,0.00,TxWx,2013-01-24 06:42:00,
2013-01-24 01:48:00,2.0,-3.0,29.68,WNW,292,0.0,1.0,82,0.00,,,0.00,TxWx,2013-01-24 06:48:00,
2013-01-24 01:53:00,2.0,-3.0,29.72,WNW,292,0.0,1.0,82,0.00,,,0.00,TxWx,2013-01-24 06:53:00,
2013-01-24 01:58:00,2.0,-3.0,29.66,South,180,0.0,0.0,82,0.00,,,0.00,TxWx,2013-01-24 06:58:00,
2013-01-24 02:03:00,2.0,-3.0,29.74,SW,225,1.0,1.0,82,0.00,,,0.00,TxWx,2013-01-24 07:03:00,
2013-01-24 02:08:00,2.0,-3.0,29.73,SSW,202,0.0,0.0,83,0.00,,,0.00,TxWx,2013-01-24 07:08:00,
2013-01-24 02:13:00,1.0,-4.0,29.67,WSW,247,0.0,1.0,83,0.00,,,0.00,TxWx,2013-01-24 07:13:00,
2013-01-24 02:18:00,1.0,-4.0,29.67,West,270,0.0,1.0,83,0.00,,,0.00,TxWx,2013-01-24 07:18:00,
2013-01-24 02:24:00,2.0,-3.0,29.68,WSW,247,1.0,2.0,83,0.00,,,0.00,TxWx,2013-01-24 07:24:00,
2013-01-24 02:29:00,1.0,-4.0,29.64,SW,225,1.0,2.0,83,0.00,,,0.00,TxWx,2013-01-24 07:29:00,
2013-01-24 02:34:00,1.0,-4.0,29.70,SW,225,0.0,0.0,83,0.00,,,0.00,TxWx,2013-01-24 07:34:00,
2013-01-24 02:39:00,1.0,-4.0,29.71,South,180,0.0,0.0,84,0.00,,,0.00,TxWx,2013-01-24 07:39:00,
2013-01-24 02:44:00,1.0,-4.0,29.67,South,180,0.0,0.0,84,0.00,,,0.00,TxWx,2013-01-24 07:44:00,
2013-01-24 02:50:00,0.0,-5.0,29.73,SW,225,0.0,0.0,84,0.00,,,0.00,TxWx,2013-01-24 07:50:00,
2013-01-24 02:55:00,0.0,-5.0,29.68,WSW,247,0.0,0.0,84,0.00,,,0.00,TxWx,2013-01-24 07:55:00,
2013-01-24 03:00:00,0.0,-5.0,29.75,SW,225,0.0,0.0,85,0.00,,,0.00,TxWx,2013-01-24 08:00:00,
2013-01-24 03:05:00,0.0,-5.0,29.61,SW,225,0.0,0.0,85,0.00,,,0.00,TxWx,2013-01-24 08:05:00,
2013-01-24 03:10:00,1.0,-4.0,29.63,SW,225,0.0,0.0,85,0.00,,,0.00,TxWx,2013-01-24 08:10:00,
2013-01-24 03:15:00,2.0,-1.0,29.58,South,180,0.0,0.0,85,0.00,,,0.00,TxWx,2013-01-24 08:15:00,
2013-01-24 03:20:00,2.0,-2.0,29.66,SW,225,0.0,0.0,86,0.00,,,0.00,TxWx,2013-01-24 08:20:00,
2013-01-24 03:26:00,1.0,-3.0,29.58,WSW,247,0.0,1.0,86,0.00,,,0.00,TxWx,2013-01-24 08:26:00,
2013-01-24 03:31:00,1.0,-3.0,29.57,SSW,202,0.0,0.0,86,0.00,,,0.00,TxWx,2013-01-24 08:31:00,
2013-01-24 03:36:00,2.0,-2.0,29.65,SSW,202,0.0,0.0,86,0.00,,,0.00,TxWx,2013-01-24 08:36:00,
2013-01-24 03:41:00,0.0,-4.0,29.60,SSW,202,0.0,1.0,86,0.00,,,0.00,TxWx,2013-01-24 08:41:00,
2013-01-24 03:47:00,2.0,-2.0,29.61,SSW,202,0.0,1.0,86,0.00,,,0.00,TxWx,2013-01-24 08:47:00,
2013-01-24 03:52:00,4.0,0.0,29.69,SSW,202,1.0,1.0,86,0.00,,,0.00,TxWx,2013-01-24 08:52:00,
2013-01-24 03:57:00,2.0,-2.0,29.61,South,180,1.0,1.0,86,0.00,,,0.00,TxWx,2013-01-24 08:57:00,
2013-01-24 04:02:00,1.0,-3.0,29.67,SW,225,0.0,0.0,87,0.00,,,0.00,TxWx,2013-01-24 09:02:00,
2013-01-24 04:07:00,1.0,-3.0,29.62,SSE,157,0.0,0.0,87,0.00,,,0.00,TxWx,2013-01-24 09:07:00,
2013-01-24 04:13:00,2.0,-2.0,29.67,South,180,0.0,0.0,87,0.00,,,0.00,TxWx,2013-01-24 09:13:00,
2013-01-24 04:18:00,0.0,-4.0,29.65,SSW,202,0.0,0.0,87,0.00,,,0.00,TxWx,2013-01-24 09:18:00,
2013-01-24 04:23:00,0.0,-4.0,29.66,WSW,247,0.0,0.0,87,0.00,,,0.00,TxWx,2013-01-24 09:23:00,
2013-01-24 04:28:00,-1.0,-4.0,29.65,South,180,0.0,0.0,87,0.00,,,0.00,TxWx,2013-01-24 09:28:00,
2013-01-24 04:33:00,0.0,-4.0,29.66,SSW,202,1.0,1.0,88,0.00,,,0.00,TxWx,2013-01-24 09:33:00,
2013-01-24 04:39:00,5.0,0.0,29.60,South,180,1.0,1.0,88,0.00,,,0.00,TxWx,2013-01-24 09:39:00,
2013-01-24 04:44:00,-1.0,-5.0,29.68,West,270,0.0,0.0,88,0.00,,,0.00,TxWx,2013-01-24 09:44:00,
2013-01-24 04:49:00,0.0,-4.0,29.70,North,0,0.0,0.0,88,0.00,,,0.00,TxWx,2013-01-24 09:49:00,
2013-01-24 04:54:00,2.0,-2.0,29.75,NNE,22,1.0,1.0,88,0.00,,,0.00,TxWx,2013-01-24 09:54:00,
2013-01-24 04:59:00,2.0,-2.0,29.61,West,270,0.0,0.0,88,0.00,,,0.00,TxWx,2013-01-24 09:59:00,
2013-01-24 05:04:00,2.0,-2.0,29.63,WNW,292,0.0,0.0,88,0.00,,,0.00,TxWx,2013-01-24 10:04:00,
2013-01-24 05:09:00,1.0,-3.0,29.61,WSW,247,0.0,0.0,88,0.00,,,0.00,TxWx,2013-01-24 10:09:00,
2013-01-24 05:15:00,0.0,-4.0,29.63,WSW,247,0.0,1.0,88,0.00,,,0.00,TxWx,2013-01-24 10:15:00,
2013-01-24 05:20:00,2.0,-2.0,29.61,South,180,0.0,1.0,88,0.00,,,0.00,TxWx,2013-01-24 10:20:00,
2013-01-24 05:25:00,2.0,-2.0,29.52,SSE,157,1.0,1.0,88,0.00,,,0.00,TxWx,2013-01-24 10:25:00,
2013-01-24 05:30:00,2.0,-2.0,29.61,SSE,157,0.0,1.0,88,0.00,,,0.00,TxWx,2013-01-24 10:30:00,
2013-01-24 05:35:00,0.0,-4.0,29.64,SW,225,0.0,0.0,88,0.00,,,0.00,TxWx,2013-01-24 10:35:00,
2013-01-24 05:40:00,2.0,-2.0,29.66,SSE,157,1.0,1.0,89,0.00,,,0.00,TxWx,2013-01-24 10:40:00,
2013-01-24 05:45:00,-2.0,-6.0,29.80,South,180,1.0,1.0,89,0.00,,,0.00,TxWx,2013-01-24 10:45:00,
2013-01-24 05:50:00,-2.0,-6.0,29.70,SSW,202,1.0,2.0,89,0.00,,,0.00,TxWx,2013-01-24 10:50:00,
2013-01-24 05:56:00,-1.0,-5.0,29.69,SW,225,1.0,1.0,88,0.00,,,0.00,TxWx,2013-01-24 10:56:00,
2013-01-24 06:01:00,1.0,-3.0,29.63,NW,315,0.0,0.0,89,0.00,,,0.00,TxWx,2013-01-24 11:01:00,
2013-01-24 06:06:00,2.0,-1.0,29.74,WSW,247,1.0,1.0,89,0.00,,,0.00,TxWx,2013-01-24 11:06:00,
2013-01-24 06:11:00,1.0,-3.0,29.53,South,180,2.0,2.0,89,0.00,,,0.00,TxWx,2013-01-24 11:11:00,
2013-01-24 06:16:00,-1.0,-5.0,29.71,SSW,202,1.0,1.0,89,0.00,,,0.00,TxWx,2013-01-24 11:16:00,
2013-01-24 06:21:00,-1.0,-5.0,29.66,SSW,202,1.0,1.0,89,0.00,,,0.00,TxWx,2013-01-24 11:21:00,
2013-01-24 06:26:00,-2.0,-6.0,29.76,SW,225,0.0,1.0,89,0.00,,,0.00,TxWx,2013-01-24 11:26:00,
2013-01-24 06:32:00,0.0,-3.0,29.65,SSW,202,1.0,1.0,89,0.00,,,0.00,TxWx,2013-01-24 11:32:00,
2013-01-24 06:37:00,-2.0,-5.0,29.82,South,180,3.0,3.0,90,0.00,,,0.00,TxWx,2013-01-24 11:37:00,
2013-01-24 06:42:00,-2.0,-5.0,29.88,North,0,0.0,1.0,90,0.00,,,0.00,TxWx,2013-01-24 11:42:00,
2013-01-24 06:47:00,-2.0,-5.0,29.83,South,180,0.0,0.0,90,0.00,,,0.00,TxWx,2013-01-24 11:47:00,
2013-01-24 06:53:00,-2.0,-4.0,29.69,NNE,22,2.0,3.0,89,0.00,,,0.00,TxWx,2013-01-24 11:53:00,
2013-01-24 06:58:00,-2.0,-5.0,29.66,South,180,1.0,1.0,89,0.00,,,0.00,TxWx,2013-01-24 11:58:00,
2013-01-24 07:03:00,-1.0,-4.0,29.72,South,180,2.0,3.0,89,0.00,,,0.00,TxWx,2013-01-24 12:03:00,
2013-01-24 07:08:00,1.0,-2.0,29.70,SSW,202,3.0,3.0,89,0.00,,,0.00,TxWx,2013-01-24 12:08:00,
2013-01-24 07:13:00,0.0,-3.0,29.64,SE,135,0.0,1.0,89,0.00,,,0.00,TxWx,2013-01-24 12:13:00,
2013-01-24 07:18:00,-3.0,-6.0,29.78,South,180,0.0,0.0,90,0.00,,,0.00,TxWx,2013-01-24 12:18:00,
2013-01-24 07:24:00,-3.0,-6.0,29.86,SSW,202,0.0,1.0,90,0.00,,,0.00,TxWx,2013-01-24 12:24:00,
2013-01-24 07:29:00,-3.0,-6.0,29.83,SSW,202,0.0,1.0,90,0.00,,,0.00,TxWx,2013-01-24 12:29:00,
2013-01-24 07:34:00,-3.0,-6.0,29.85,SSW,202,2.0,3.0,90,0.00,,,0.00,TxWx,2013-01-24 12:34:00,
2013-01-24 07:39:00,-3.0,-6.0,29.82,SSW,202,0.0,1.0,91,0.00,,,0.00,TxWx,2013-01-24 12:39:00,
2013-01-24 07:44:00,-3.0,-6.0,29.84,WSW,247,1.0,1.0,91,0.00,,,0.00,TxWx,2013-01-24 12:44:00,
2013-01-24 07:49:00,-2.0,-5.0,29.80,South,180,3.0,3.0,90,0.00,,,0.00,TxWx,2013-01-24 12:49:00,
2013-01-24 07:54:00,-2.0,-5.0,29.76,SSW,202,2.0,2.0,90,0.00,,,0.00,TxWx,2013-01-24 12:54:00,
2013-01-24 07:59:00,-2.0,-5.0,29.80,SSW,202,1.0,1.0,90,0.00,,,0.00,TxWx,2013-01-24 12:59:00,
2013-01-24 08:04:00,-2.0,-5.0,29.83,WSW,247,3.0,3.0,91,0.00,,,0.00,TxWx,2013-01-24 13:04:00,
2013-01-24 08:10:00,-2.0,-5.0,29.94,WSW,247,2.0,2.0,91,0.00,,,0.00,TxWx,2013-01-24 13:10:00,
2013-01-24 08:15:00,-1.0,-4.0,29.87,WSW,247,1.0,1.0,91,0.00,,,0.00,TxWx,2013-01-24 13:15:00,
2013-01-24 08:20:00,-1.0,-4.0,29.94,SSW,202,0.0,1.0,91,0.00,,,0.00,TxWx,2013-01-24 13:20:00,
2013-01-24 08:25:00,0.0,-3.0,29.72,WSW,247,0.0,1.0,90,0.00,,,0.00,TxWx,2013-01-24 13:25:00,
2013-01-24 08:30:00,2.0,-1.0,29.79,East,90,1.0,1.0,91,0.00,,,0.00,TxWx,2013-01-24 13:30:00,
2013-01-24 08:36:00,2.0,-1.0,29.84,ESE,112,1.0,1.0,90,0.00,,,0.00,TxWx,2013-01-24 13:36:00,
2013-01-24 08:41:00,2.0,-1.0,29.74,ESE,112,1.0,1.0,90,0.00,,,0.00,TxWx,2013-01-24 13:41:00,
2013-01-24 08:46:00,3.0,0.0,29.69,ESE,112,1.0,1.0,89,0.00,,,0.00,TxWx,2013-01-24 13:46:00,
2013-01-24 08:52:00,3.0,0.0,29.85,SE,135,1.0,1.0,89,0.00,,,0.00,TxWx,2013-01-24 13:52:00,
2013-01-24 08:57:00,3.0,0.0,29.77,SE,135,1.0,2.0,89,0.00,,,0.00,TxWx,2013-01-24 13:57:00,
2013-01-24 09:02:00,3.0,-1.0,29.76,South,180,2.0,2.0,88,0.00,,,0.00,TxWx,2013-01-24 14:02:00,
2013-01-24 09:07:00,4.0,0.0,29.75,South,180,0.0,1.0,89,0.00,,,0.00,TxWx,2013-01-24 14:07:00,
2013-01-24 09:13:00,5.0,1.0,29.70,South,180,2.0,2.0,88,0.00,,,0.00,TxWx,2013-01-24 14:13:00,
2013-01-24 09:18:00,5.0,1.0,29.61,SSW,202,3.0,3.0,87,0.00,,,0.00,TxWx,2013-01-24 14:18:00,
2013-01-24 09:23:00,5.0,1.0,29.73,South,180,3.0,3.0,87,0.00,,,0.00,TxWx,2013-01-24 14:23:00,
2013-01-24 09:28:00,5.0,1.0,29.80,South,180,1.0,2.0,87,0.00,,,0.00,TxWx,2013-01-24 14:28:00,
2013-01-24 09:33:00,6.0,2.0,29.77,SSE,157,2.0,2.0,87,0.00,,,0.00,TxWx,2013-01-24 14:33:00,
2013-01-24 09:38:00,9.0,5.0,29.61,ESE,112,0.0,1.0,86,0.00,,,0.00,TxWx,2013-01-24 14:38:00,
2013-01-24 09:44:00,9.0,4.0,29.60,SE,135,2.0,2.0,85,0.00,,,0.00,TxWx,2013-01-24 14:44:00,
2013-01-24 09:49:00,9.0,5.0,29.67,South,180,1.0,1.0,85,0.00,,,0.00,TxWx,2013-01-24 14:49:00,
2013-01-24 09:54:00,9.0,4.0,29.70,SSE,157,3.0,3.0,84,0.00,,,0.00,TxWx,2013-01-24 14:54:00,
2013-01-24 09:59:00,11.0,6.0,29.77,SSE,157,1.0,2.0,84,0.00,,,0.00,TxWx,2013-01-24 14:59:00,
2013-01-24 10:04:00,12.0,9.0,29.61,East,90,2.0,2.0,83,0.00,,,0.00,TxWx,2013-01-24 15:04:00,
2013-01-24 10:09:00,12.0,6.0,29.62,South,180,1.0,2.0,81,0.00,,,0.00,TxWx,2013-01-24 15:09:00,
2013-01-24 10:14:00,12.0,6.0,29.60,South,180,3.0,3.0,80,0.00,,,0.00,TxWx,2013-01-24 15:14:00,
2013-01-24 10:20:00,12.0,6.0,29.78,SW,225,3.0,3.0,79,0.00,,,0.00,TxWx,2013-01-24 15:20:00,
2013-01-24 10:25:00,13.0,6.0,29.76,SSE,157,6.0,6.0,78,0.00,,,0.00,TxWx,2013-01-24 15:25:00,
2013-01-24 10:30:00,13.0,6.0,29.76,SSE,157,6.0,7.0,76,0.00,,,0.00,TxWx,2013-01-24 15:30:00,
2013-01-24 10:36:00,13.0,5.0,29.79,South,180,5.0,5.0,74,0.00,,,0.00,TxWx,2013-01-24 15:36:00,
2013-01-24 10:41:00,13.0,5.0,29.78,South,180,3.0,3.0,72,0.00,,,0.00,TxWx,2013-01-24 15:41:00,
2013-01-24 10:46:00,13.0,5.0,29.82,South,180,5.0,6.0,72,0.00,,,0.00,TxWx,2013-01-24 15:46:00,
2013-01-24 10:51:00,13.0,4.0,29.95,SSE,157,3.0,3.0,71,0.00,,,0.00,TxWx,2013-01-24 15:51:00,
2013-01-24 10:56:00,13.0,3.0,29.92,SW,225,4.0,4.0,67,0.00,,,0.00,TxWx,2013-01-24 15:56:00,
2013-01-24 11:02:00,16.0,6.0,29.66,South,180,3.0,3.0,67,0.00,,,0.00,TxWx,2013-01-24 16:02:00,
2013-01-24 11:07:00,17.0,6.0,29.68,SE,135,3.0,4.0,66,0.00,,,0.00,TxWx,2013-01-24 16:07:00,
2013-01-24 11:12:00,15.0,5.0,29.72,SE,135,4.0,5.0,66,0.00,,,0.00,TxWx,2013-01-24 16:12:00,
2013-01-24 11:17:00,16.0,5.0,29.71,SSE,157,5.0,6.0,65,0.00,,,0.00,TxWx,2013-01-24 16:17:00,
2013-01-24 11:22:00,16.0,5.0,29.72,SE,135,3.0,4.0,65,0.00,,,0.00,TxWx,2013-01-24 16:22:00,
2013-01-24 11:27:00,17.0,6.0,29.65,South,180,5.0,5.0,64,0.00,,,0.00,TxWx,2013-01-24 16:27:00,
2013-01-24 11:32:00,16.0,5.0,29.75,SE,135,4.0,5.0,64,0.00,,,0.00,TxWx,2013-01-24 16:32:00,
2013-01-24 11:37:00,16.0,5.0,29.67,South,180,1.0,1.0,63,0.00,,,0.00,TxWx,2013-01-24 16:37:00,
2013-01-24 11:43:00,20.0,8.0,29.66,East,90,2.0,2.0,63,0.00,,,0.00,TxWx,2013-01-24 16:43:00,
2013-01-24 11:48:00,19.0,7.0,29.73,SE,135,2.0,2.0,61,0.00,,,0.00,TxWx,2013-01-24 16:48:00,
2013-01-24 11:53:00,18.0,6.0,29.67,ESE,112,3.0,3.0,61,0.00,,,0.00,TxWx,2013-01-24 16:53:00,
2013-01-24 11:58:00,18.0,5.0,29.72,ESE,112,3.0,3.0,60,0.00,,,0.00,TxWx,2013-01-24 16:58:00,
2013-01-24 12:03:00,18.0,5.0,29.83,South,180,1.0,1.0,58,0.00,,,0.00,TxWx,2013-01-24 17:03:00,
2013-01-24 12:09:00,19.0,5.0,29.88,North,0,1.0,1.0,58,0.00,,,0.00,TxWx,2013-01-24 17:09:00,
2013-01-24 12:14:00,21.0,7.0,29.66,WNW,292,4.0,4.0,56,0.00,,,0.00,TxWx,2013-01-24 17:14:00,
2013-01-24 12:19:00,22.0,3.0,29.68,West,270,9.0,11.0,46,0.00,,,0.00,TxWx,2013-01-24 17:19:00,
2013-01-24 12:24:00,20.0,1.0,29.70,WSW,247,10.0,12.0,44,0.00,,,0.00,TxWx,2013-01-24 17:24:00,
2013-01-24 12:30:00,20.0,0.0,29.76,WSW,247,11.0,13.0,43,0.00,,,0.00,TxWx,2013-01-24 17:30:00,
2013-01-24 12:35:00,20.0,-2.0,29.68,WSW,247,18.0,18.0,40,0.00,,,0.00,TxWx,2013-01-24 17:35:00,
2013-01-24 12:40:00,21.0,0.0,29.71,West,270,10.0,11.0,41,0.00,,,0.00,TxWx,2013-01-24 17:40:00,
2013-01-24 12:45:00,22.0,0.0,29.71,WSW,247,8.0,9.0,40,0.00,,,0.00,TxWx,2013-01-24 17:45:00,
2013-01-24 12:51:00,22.0,0.0,29.57,WSW,247,5.0,7.0,40,0.00,,,0.00,TxWx,2013-01-24 17:51:00,
2013-01-24 12:56:00,21.0,-1.0,29.63,SW,225,11.0,11.0,40,0.00,,,0.00,TxWx,2013-01-24 17:56:00,
2013-01-24 13:01:00,22.0,0.0,29.65,WSW,247,10.0,10.0,40,0.00,,,0.00,TxWx,2013-01-24 18:01:00,
2013-01-24 13:06:00,21.0,-1.0,29.69,SSW,202,8.0,10.0,39,0.00,,,0.00,TxWx,2013-01-24 18:06:00,
2013-01-24 13:12:00,22.0,0.0,29.64,WSW,247,11.0,13.0,39,0.00,,,0.00,TxWx,2013-01-24 18:12:00,
2013-01-24 13:17:00,22.0,-1.0,29.73,SW,225,11.0,13.0,38,0.00,,,0.00,TxWx,2013-01-24 18:17:00,
2013-01-24 13:22:00,21.0,-2.0,29.64,West,270,12.0,14.0,37,0.00,,,0.00,TxWx,2013-01-24 18:22:00,
2013-01-24 13:27:00,21.0,-2.0,29.80,SW,225,11.0,12.0,38,0.00,,,0.00,TxWx,2013-01-24 18:27:00,
2013-01-24 13:32:00,22.0,0.0,29.75,SSE,157,3.0,4.0,39,0.00,,,0.00,TxWx,2013-01-24 18:32:00,
2013-01-24 13:37:00,22.0,-1.0,29.84,WSW,247,11.0,16.0,38,0.00,,,0.00,TxWx,2013-01-24 18:37:00,
2013-01-24 13:43:00,22.0,-1.0,29.76,West,270,10.0,10.0,38,0.00,,,0.00,TxWx,2013-01-24 18:43:00,
2013-01-24 13:48:00,22.0,-1.0,29.89,WSW,247,17.0,17.0,38,0.00,,,0.00,TxWx,2013-01-24 18:48:00,
2013-01-24 13:53:00,22.0,-2.0,29.80,SW,225,10.0,10.0,37,0.00,,,0.00,TxWx,2013-01-24 18:53:00,
2013-01-24 13:58:00,21.0,-2.0,29.89,WSW,247,9.0,10.0,38,0.00,,,0.00,TxWx,2013-01-24 18:58:00,
2013-01-24 14:01:00,13.0,0.0,30.03,NNE,22,3.0,3.0,59,0.00,,,0.00,TxWx,2013-01-24 19:01:00,
2013-01-24 14:02:00,12.0,-1.0,29.96,ENE,67,3.0,3.0,59,0.00,,,0.00,TxWx,2013-01-24 19:02:00,
2013-01-24 14:03:00,21.0,-2.0,29.87,SSW,202,10.0,11.0,37,0.00,,,0.00,TxWx,2013-01-24 19:03:00,
2013-01-24 14:04:00,13.0,1.0,29.99,ENE,67,1.0,2.0,60,0.00,,,0.00,TxWx,2013-01-24 19:04:00,
2013-01-24 14:05:00,13.0,1.0,30.04,NE,45,2.0,3.0,60,0.00,,,0.00,TxWx,2013-01-24 19:05:00,
2013-01-24 14:06:00,13.0,1.0,29.97,ENE,67,4.0,4.0,60,0.00,,,0.00,TxWx,2013-01-24 19:06:00,
2013-01-24 14:07:00,13.0,1.0,29.97,ENE,67,3.0,3.0,60,0.00,,,0.00,TxWx,2013-01-24 19:07:00,
2013-01-24 14:08:00,22.0,-1.0,29.90,SW,225,6.0,9.0,38,0.00,,,0.00,TxWx,2013-01-24 19:08:00,
2013-01-24 14:09:00,13.0,1.0,29.98,ENE,67,4.0,5.0,60,0.00,,,0.00,TxWx,2013-01-24 19:09:00,
2013-01-24 14:10:00,13.0,1.0,29.95,ENE,67,4.0,4.0,60,0.00,,,0.00,TxWx,2013-01-24 19:10:00,
2013-01-24 14:11:00,13.0,0.0,29.92,NE,45,3.0,3.0,59,0.00,,,0.00,TxWx,2013-01-24 19:11:00,
2013-01-24 14:12:00,14.0,1.0,29.87,East,90,1.0,3.0,59,0.00,,,0.00,TxWx,2013-01-24 19:12:00,
2013-01-24 14:13:00,22.0,-1.0,29.96,WSW,247,9.0,11.0,38,0.00,,,0.00,TxWx,2013-01-24 19:13:00,
2013-01-24 14:14:00,14.0,1.0,29.85,ENE,67,3.0,3.0,59,0.00,,,0.00,TxWx,2013-01-24 19:14:00,
2013-01-24 14:15:00,14.0,1.0,29.93,SE,135,1.0,1.0,60,0.00,,,0.00,TxWx,2013-01-24 19:15:00,
2013-01-24 14:16:00,14.0,1.0,29.89,East,90,1.0,1.0,59,0.00,,,0.00,TxWx,2013-01-24 19:16:00,
2013-01-24 14:17:00,13.0,0.0,29.91,WSW,247,0.0,1.0,59,0.00,,,0.00,TxWx,2013-01-24 19:17:00,
2013-01-24 14:18:00,13.0,1.0,30.00,SSW,202,0.0,1.0,60,0.00,,,0.00,TxWx,2013-01-24 19:18:00,
2013-01-24 14:19:00,22.0,-2.0,29.79,SW,225,7.0,7.0,36,0.00,,,0.00,TxWx,2013-01-24 19:19:00,
2013-01-24 14:20:00,13.0,1.0,30.01,South,180,1.0,1.0,60,0.00,,,0.00,TxWx,2013-01-24 19:20:00,
2013-01-24 14:21:00,13.0,1.0,30.02,SSE,157,1.0,1.0,60,0.00,,,0.00,TxWx,2013-01-24 19:21:00,
2013-01-24 14:22:00,13.0,1.0,30.02,SSE,157,1.0,1.0,60,0.00,,,0.00,TxWx,2013-01-24 19:22:00,
2013-01-24 14:23:00,13.0,1.0,29.96,NNW,337,1.0,1.0,60,0.00,,,0.00,TxWx,2013-01-24 19:23:00,
2013-01-24 14:24:00,23.0,-1.0,29.76,SSW,202,7.0,7.0,37,0.00,,,0.00,TxWx,2013-01-24 19:24:00,
2013-01-24 14:25:00,13.0,1.0,30.02,SW,225,1.0,1.0,60,0.00,,,0.00,TxWx,2013-01-24 19:25:00,
2013-01-24 14:26:00,13.0,1.0,29.97,SSW,202,1.0,1.0,60,0.00,,,0.00,TxWx,2013-01-24 19:26:00,
2013-01-24 14:27:00,13.0,1.0,30.02,SSW,202,1.0,1.0,60,0.00,,,0.00,TxWx,2013-01-24 19:27:00,
2013-01-24 14:28:00,14.0,1.0,29.97,WSW,247,3.0,4.0,59,0.00,,,0.00,TxWx,2013-01-24 19:28:00,
2013-01-24 14:29:00,22.0,-3.0,29.78,West,270,13.0,13.0,35,0.00,,,0.00,TxWx,2013-01-24 19:29:00,
2013-01-24 14:30:00,15.0,2.0,29.84,SSW,202,1.0,1.0,59,0.00,,,0.00,TxWx,2013-01-24 19:30:00,
2013-01-24 14:31:00,16.0,3.0,29.88,WSW,247,2.0,3.0,59,0.00,,,0.00,TxWx,2013-01-24 19:31:00,
2013-01-24 14:32:00,13.0,0.0,29.97,SSW,202,3.0,3.0,59,0.00,,,0.00,TxWx,2013-01-24 19:32:00,
2013-01-24 14:33:00,13.0,0.0,29.98,SSW,202,1.0,1.0,59,0.00,,,0.00,TxWx,2013-01-24 19:33:00,
2013-01-24 14:34:00,22.0,-2.0,29.86,WSW,247,13.0,13.0,35,0.00,,,0.00,TxWx,2013-01-24 19:34:00,
2013-01-24 14:35:00,13.0,0.0,29.97,SSW,202,3.0,3.0,59,0.00,,,0.00,TxWx,2013-01-24 19:35:00,
2013-01-24 14:39:00,23.0,-1.0,29.80,SW,225,10.0,11.0,36,0.00,,,0.00,TxWx,2013-01-24 19:39:00,
2013-01-24 14:40:00,13.0,0.0,30.07,South,180,1.0,1.0,59,0.00,,,0.00,TxWx,2013-01-24 19:40:00,
2013-01-24 14:42:00,12.0,-1.0,30.15,SSW,202,1.0,1.0,59,0.00,,,0.00,TxWx,2013-01-24 19:42:00,
2013-01-24 14:44:00,23.0,-2.0,29.79,SW,225,10.0,11.0,34,0.00,,,0.00,TxWx,2013-01-24 19:44:00,
2013-01-24 14:50:00,23.0,-2.0,29.74,West,270,10.0,10.0,34,0.00,,,0.00,TxWx,2013-01-24 19:50:00,
2013-01-24 14:55:00,23.0,-2.0,29.73,South,180,5.0,6.0,35,0.00,,,0.00,TxWx,2013-01-24 19:55:00,
2013-01-24 15:00:00,23.0,-1.0,29.73,SSW,202,5.0,6.0,36,0.00,,,0.00,TxWx,2013-01-24 20:00:00,
2013-01-24 15:05:00,23.0,-1.0,29.73,SSE,157,14.0,14.0,36,0.00,,,0.00,TxWx,2013-01-24 20:05:00,
2013-01-24 15:10:00,22.0,0.0,29.76,South,180,11.0,11.0,39,0.00,,,0.00,TxWx,2013-01-24 20:10:00,
2013-01-24 15:15:00,21.0,0.0,29.74,South,180,13.0,13.0,41,0.00,,,0.00,TxWx,2013-01-24 20:15:00,
2013-01-24 15:20:00,22.0,1.0,29.67,South,180,5.0,7.0,42,0.00,,,0.00,TxWx,2013-01-24 20:20:00,
2013-01-24 15:26:00,21.0,0.0,29.79,South,180,6.0,8.0,42,0.00,,,0.00,TxWx,2013-01-24 20:26:00,
2013-01-24 15:31:00,21.0,0.0,29.77,SW,225,10.0,10.0,42,0.00,,,0.00,TxWx,2013-01-24 20:31:00,
2013-01-24 15:36:00,22.0,0.0,29.67,South,180,18.0,18.0,40,0.00,,,0.00,TxWx,2013-01-24 20:36:00,
2013-01-24 15:41:00,22.0,-1.0,29.71,WSW,247,10.0,13.0,38,0.00,,,0.00,TxWx,2013-01-24 20:41:00,
2013-01-24 15:46:00,22.0,0.0,29.76,WSW,247,10.0,11.0,39,0.00,,,0.00,TxWx,2013-01-24 20:46:00,
2013-01-24 15:51:00,22.0,-1.0,29.71,WSW,247,11.0,11.0,38,0.00,,,0.00,TxWx,2013-01-24 20:51:00,
2013-01-24 15:57:00,22.0,-1.0,29.71,SSW,202,11.0,13.0,38,0.00,,,0.00,TxWx,2013-01-24 20:57:00,
2013-01-24 16:02:00,21.0,-2.0,29.82,SSE,157,9.0,10.0,38,0.00,,,0.00,TxWx,2013-01-24 21:02:00,
2013-01-24 16:07:00,20.0,-3.0,29.72,SSE,157,4.0,6.0,38,0.00,,,0.00,TxWx,2013-01-24 21:07:00,
2013-01-24 16:12:00,20.0,-3.0,29.72,SSW,202,16.0,20.0,37,0.00,,,0.00,TxWx,2013-01-24 21:12:00,
2013-01-24 16:17:00,22.0,-1.0,29.61,NNE,22,5.0,6.0,37,0.00,,,0.00,TxWx,2013-01-24 21:17:00,
2013-01-24 16:23:00,22.0,-1.0,29.64,WSW,247,5.0,5.0,38,0.00,,,0.00,TxWx,2013-01-24 21:23:00,
2013-01-24 16:28:00,20.0,-3.0,29.75,SW,225,6.0,9.0,38,0.00,,,0.00,TxWx,2013-01-24 21:28:00,
2013-01-24 16:33:00,19.0,-4.0,29.79,SW,225,11.0,11.0,37,0.00,,,0.00,TxWx,2013-01-24 21:33:00,
2013-01-24 16:38:00,21.0,-2.0,29.63,SW,225,8.0,8.0,38,0.00,,,0.00,TxWx,2013-01-24 21:38:00,
2013-01-24 16:43:00,19.0,-3.0,29.88,South,180,11.0,12.0,39,0.00,,,0.00,TxWx,2013-01-24 21:43:00,
2013-01-24 16:48:00,19.0,-3.0,29.76,SW,225,16.0,18.0,39,0.00,,,0.00,TxWx,2013-01-24 21:48:00,
2013-01-24 16:53:00,20.0,-2.0,29.71,SW,225,16.0,16.0,39,0.00,,,0.00,TxWx,2013-01-24 21:53:00,
2013-01-24 16:59:00,19.0,-3.0,29.77,SSW,202,9.0,12.0,39,0.00,,,0.00,TxWx,2013-01-24 21:59:00,
2013-01-24 17:04:00,19.0,-3.0,29.84,SSE,157,9.0,13.0,40,0.00,,,0.00,TxWx,2013-01-24 22:04:00,
2013-01-24 17:09:00,19.0,-2.0,29.78,WSW,247,9.0,13.0,40,0.00,,,0.00,TxWx,2013-01-24 22:09:00,
2013-01-24 17:14:00,18.0,-3.0,29.93,WSW,247,20.0,20.0,40,0.00,,,0.00,TxWx,2013-01-24 22:14:00,
2013-01-24 17:19:00,19.0,-2.0,29.77,South,180,8.0,10.0,41,0.00,,,0.00,TxWx,2013-01-24 22:19:00,
2013-01-24 17:24:00,18.0,-3.0,29.94,WSW,247,12.0,12.0,41,0.00,,,0.00,TxWx,2013-01-24 22:24:00,
2013-01-24 17:30:00,18.0,-3.0,29.94,South,180,5.0,8.0,41,0.00,,,0.00,TxWx,2013-01-24 22:30:00,
2013-01-24 17:35:00,17.0,-1.0,29.92,South,180,9.0,10.0,46,0.00,,,0.00,TxWx,2013-01-24 22:35:00,
2013-01-24 17:40:00,17.0,0.0,29.95,SE,135,11.0,13.0,49,0.00,,,0.00,TxWx,2013-01-24 22:40:00,
2013-01-24 17:45:00,16.0,0.0,29.93,SSW,202,11.0,12.0,52,0.00,,,0.00,TxWx,2013-01-24 22:45:00,
2013-01-24 17:50:00,17.0,1.0,29.59,South,180,11.0,11.0,52,0.00,,,0.00,TxWx,2013-01-24 22:50:00,
2013-01-24 17:55:00,18.0,3.0,29.71,South,180,5.0,7.0,53,0.00,,,0.00,TxWx,2013-01-24 22:55:00,
2013-01-24 18:01:00,17.0,2.0,29.65,South,180,5.0,6.0,53,0.00,,,0.00,TxWx,2013-01-24 23:01:00,
2013-01-24 18:06:00,18.0,3.0,29.82,SSW,202,5.0,7.0,53,0.00,,,0.00,TxWx,2013-01-24 23:06:00,
2013-01-24 18:11:00,17.0,2.0,29.74,SSW,202,6.0,6.0,53,0.00,,,0.00,TxWx,2013-01-24 23:11:00,
2013-01-24 18:16:00,16.0,1.0,29.74,SSE,157,6.0,8.0,54,0.00,,,0.00,TxWx,2013-01-24 23:16:00,
2013-01-24 18:22:00,16.0,2.0,29.77,SSW,202,8.0,10.0,55,0.00,,,0.00,TxWx,2013-01-24 23:22:00,
2013-01-24 18:27:00,16.0,2.0,29.76,South,180,7.0,7.0,56,0.00,,,0.00,TxWx,2013-01-24 23:27:00,
2013-01-24 18:32:00,17.0,3.0,29.74,SSW,202,5.0,5.0,56,0.00,,,0.00,TxWx,2013-01-24 23:32:00,
2013-01-24 18:37:00,16.0,2.0,29.67,South,180,5.0,5.0,56,0.00,,,0.00,TxWx,2013-01-24 23:37:00,
2013-01-24 18:42:00,16.0,2.0,29.84,WSW,247,6.0,6.0,57,0.00,,,0.00,TxWx,2013-01-24 23:42:00,
2013-01-24 18:47:00,16.0,2.0,29.84,South,180,2.0,3.0,57,0.00,,,0.00,TxWx,2013-01-24 23:47:00,
2013-01-24 18:52:00,15.0,1.0,29.84,SW,225,4.0,4.0,57,0.00,,,0.00,TxWx,2013-01-24 23:52:00,
2013-01-24 18:58:00,15.0,2.0,29.74,WSW,247,1.0,2.0,57,0.00,,,0.00,TxWx,2013-01-24 23:58:00,
2013-01-24 19:03:00,15.0,2.0,29.84,South,180,3.0,3.0,57,0.00,,,0.00,TxWx,2013-01-25 00:03:00,
2013-01-24 19:08:00,15.0,2.0,29.91,SSW,202,3.0,4.0,58,0.00,,,0.00,TxWx,2013-01-25 00:08:00,
2013-01-24 19:13:00,15.0,2.0,29.87,SSW,202,4.0,4.0,58,0.00,,,0.00,TxWx,2013-01-25 00:13:00,
2013-01-24 19:18:00,14.0,1.0,30.02,SSW,202,3.0,3.0,59,0.00,,,0.00,TxWx,2013-01-25 00:18:00,
2013-01-24 19:23:00,14.0,1.0,30.14,SW,225,5.0,5.0,59,0.00,,,0.00,TxWx,2013-01-25 00:23:00,
2013-01-24 19:28:00,14.0,1.0,30.06,WSW,247,3.0,3.0,59,0.00,,,0.00,TxWx,2013-01-25 00:28:00,
2013-01-24 19:34:00,14.0,1.0,30.12,South,180,2.0,3.0,59,0.00,,,0.00,TxWx,2013-01-25 00:34:00,
2013-01-24 19:39:00,14.0,1.0,30.05,West,270,5.0,5.0,60,0.00,,,0.00,TxWx,2013-01-25 00:39:00,
2013-01-24 19:44:00,14.0,1.0,30.10,WSW,247,12.0,13.0,60,0.00,,,0.00,TxWx,2013-01-25 00:44:00,
2013-01-24 19:49:00,14.0,1.0,30.17,WSW,247,5.0,7.0,58,0.00,,,0.00,TxWx,2013-01-25 00:49:00,
2013-01-24 19:55:00,14.0,1.0,30.19,SSW,202,7.0,7.0,58,0.00,,,0.00,TxWx,2013-01-25 00:55:00,
2013-01-24 20:00:00,14.0,1.0,30.12,South,180,6.0,6.0,57,0.00,,,0.00,TxWx,2013-01-25 01:00:00,
2013-01-24 20:05:00,14.0,0.0,30.26,WSW,247,8.0,11.0,56,0.00,,,0.00,TxWx,2013-01-25 01:05:00,
2013-01-24 20:10:00,14.0,0.0,30.24,WSW,247,7.0,7.0,56,0.00,,,0.00,TxWx,2013-01-25 01:10:00,
2013-01-24 20:15:00,14.0,0.0,30.27,WSW,247,2.0,3.0,57,0.00,,,0.00,TxWx,2013-01-25 01:15:00,
2013-01-24 20:21:00,14.0,1.0,30.32,WSW,247,5.0,5.0,57,0.00,,,0.00,TxWx,2013-01-25 01:21:00,
2013-01-24 20:26:00,14.0,0.0,30.12,WSW,247,7.0,8.0,57,0.00,,,0.00,TxWx,2013-01-25 01:26:00,
2013-01-24 20:31:00,14.0,1.0,30.19,WSW,247,2.0,2.0,58,0.00,,,0.00,TxWx,2013-01-25 01:31:00,
2013-01-24 20:37:00,14.0,1.0,30.19,SW,225,3.0,3.0,58,0.00,,,0.00,TxWx,2013-01-25 01:37:00,
2013-01-24 20:42:00,14.0,1.0,30.16,ESE,112,4.0,5.0,58,0.00,,,0.00,TxWx,2013-01-25 01:42:00,
2013-01-24 20:47:00,14.0,1.0,30.21,SSW,202,2.0,2.0,58,0.00,,,0.00,TxWx,2013-01-25 01:47:00,
2013-01-24 20:52:00,14.0,1.0,30.20,South,180,2.0,3.0,58,0.00,,,0.00,TxWx,2013-01-25 01:52:00,
2013-01-24 20:58:00,14.0,1.0,30.18,South,180,2.0,2.0,59,0.00,,,0.00,TxWx,2013-01-25 01:58:00,
2013-01-24 21:03:00,13.0,0.0,30.10,SSE,157,2.0,2.0,58,0.00,,,0.00,TxWx,2013-01-25 02:03:00,
2013-01-24 21:08:00,13.0,0.0,30.14,ESE,112,1.0,2.0,59,0.00,,,0.00,TxWx,2013-01-25 02:08:00,
2013-01-24 21:13:00,13.0,1.0,29.95,SE,135,3.0,3.0,60,0.00,,,0.00,TxWx,2013-01-25 02:13:00,
2013-01-24 21:19:00,13.0,1.0,29.96,SE,135,3.0,3.0,61,0.00,,,0.00,TxWx,2013-01-25 02:19:00,
2013-01-24 21:24:00,14.0,2.0,29.93,SE,135,1.0,1.0,60,0.00,,,0.00,TxWx,2013-01-25 02:24:00,
2013-01-24 21:29:00,14.0,2.0,29.86,East,90,3.0,3.0,60,0.00,,,0.00,TxWx,2013-01-25 02:29:00,
2013-01-24 21:34:00,14.0,2.0,29.95,SE,135,4.0,5.0,60,0.00,,,0.00,TxWx,2013-01-25 02:34:00,
2013-01-24 21:39:00,14.0,2.0,29.91,ESE,112,3.0,3.0,60,0.00,,,0.00,TxWx,2013-01-25 02:39:00,
2013-01-24 21:45:00,14.0,2.0,29.94,East,90,1.0,2.0,61,0.00,,,0.00,TxWx,2013-01-25 02:45:00,
2013-01-24 21:50:00,13.0,1.0,30.04,ESE,112,2.0,3.0,61,0.00,,,0.00,TxWx,2013-01-25 02:50:00,
2013-01-24 21:55:00,13.0,1.0,30.06,ESE,112,4.0,4.0,61,0.00,,,0.00,TxWx,2013-01-25 02:55:00,
2013-01-24 22:00:00,13.0,1.0,30.18,SE,135,5.0,5.0,62,0.00,,,0.00,TxWx,2013-01-25 03:00:00,
2013-01-24 22:05:00,13.0,1.0,30.08,East,90,5.0,8.0,61,0.00,,,0.00,TxWx,2013-01-25 03:05:00,
2013-01-24 22:11:00,14.0,2.0,30.08,SSE,157,6.0,6.0,61,0.00,,,0.00,TxWx,2013-01-25 03:11:00,
2013-01-24 22:16:00,14.0,1.0,30.09,South,180,5.0,5.0,59,0.00,,,0.00,TxWx,2013-01-25 03:16:00,
2013-01-24 22:21:00,14.0,1.0,30.10,South,180,3.0,4.0,59,0.00,,,0.00,TxWx,2013-01-25 03:21:00,
2013-01-24 22:26:00,14.0,1.0,30.10,South,180,6.0,6.0,59,0.00,,,0.00,TxWx,2013-01-25 03:26:00,
2013-01-24 22:32:00,14.0,1.0,30.18,SSW,202,3.0,4.0,58,0.00,,,0.00,TxWx,2013-01-25 03:32:00,
2013-01-24 22:37:00,14.0,1.0,30.17,SSW,202,3.0,3.0,58,0.00,,,0.00,TxWx,2013-01-25 03:37:00,
2013-01-24 22:42:00,14.0,1.0,30.22,South,180,3.0,4.0,59,0.00,,,0.00,TxWx,2013-01-25 03:42:00,
2013-01-24 22:47:00,14.0,1.0,30.03,South,180,5.0,5.0,58,0.00,,,0.00,TxWx,2013-01-25 03:47:00,
2013-01-24 22:52:00,15.0,1.0,30.05,WSW,247,6.0,7.0,57,0.00,,,0.00,TxWx,2013-01-25 03:52:00,
2013-01-24 22:57:00,14.0,1.0,30.02,SW,225,3.0,3.0,57,0.00,,,0.00,TxWx,2013-01-25 03:57:00,
2013-01-24 23:03:00,14.0,0.0,30.01,SSW,202,8.0,8.0,56,0.00,,,0.00,TxWx,2013-01-25 04:03:00,
2013-01-24 23:08:00,15.0,1.0,29.91,WNW,292,2.0,2.0,56,0.00,,,0.00,TxWx,2013-01-25 04:08:00,
2013-01-24 23:13:00,14.0,0.0,30.06,SSW,202,4.0,5.0,56,0.00,,,0.00,TxWx,2013-01-25 04:13:00,
2013-01-24 23:18:00,14.0,0.0,30.06,South,180,3.0,3.0,56,0.00,,,0.00,TxWx,2013-01-25 04:18:00,
2013-01-24 23:23:00,14.0,0.0,30.14,SW,225,5.0,5.0,56,0.00,,,0.00,TxWx,2013-01-25 04:23:00,
2013-01-24 23:28:00,14.0,0.0,30.19,South,180,2.0,3.0,56,0.00,,,0.00,TxWx,2013-01-25 04:28:00,
2013-01-24 23:34:00,13.0,0.0,30.25,SW,225,2.0,3.0,57,0.00,,,0.00,TxWx,2013-01-25 04:34:00,
2013-01-24 23:39:00,14.0,1.0,30.11,South,180,1.0,2.0,57,0.00,,,0.00,TxWx,2013-01-25 04:39:00,
2013-01-24 23:44:00,13.0,0.0,30.12,South,180,1.0,2.0,58,0.00,,,0.00,TxWx,2013-01-25 04:44:00,
2013-01-24 23:49:00,13.0,0.0,30.19,SE,135,0.0,1.0,58,0.00,,,0.00,TxWx,2013-01-25 04:49:00,
2013-01-24 23:54:00,13.0,0.0,30.06,ESE,112,2.0,2.0,58,0.00,,,0.00,TxWx,2013-01-25 04:54:00,
2013-01-24 23:59:00,13.0,0.0,30.02,ENE,67,3.0,3.0,59,0.00,,,0.00,TxWx,2013-01-25 04:59:00,